Saint Bonnet de Bellac- Haute Vienne - France
Donnes mto: lundi, 20/08/2012
Date Horaire Temp. E. Hum. E. P.atmo. Pluie Vent Direction Direction Ensoleilleme Solaire P. de rose Temp au vent Rafales
20/08/2012 00:00 23,1 C 70 % 1020,3 hPa 0,0 mm 0,0 km/h (0 Bft) O-SO 247 0 min 0 W/m 17,3 C 23,1 C 0,0 km/h (0 Bft)
20/08/2012 00:10 22,9 C 70 % 1020,2 hPa 0,0 mm 0,0 km/h (0 Bft) O-SO 247 0 min 0 W/m 17,1 C 22,9 C 0,0 km/h (0 Bft)
20/08/2012 00:20 22,7 C 71 % 1020,2 hPa 0,0 mm 0,0 km/h (0 Bft) O-SO 247 0 min 0 W/m 17,2 C 22,7 C 0,0 km/h (0 Bft)
20/08/2012 00:30 22,5 C 72 % 1020,2 hPa 0,0 mm 0,0 km/h (0 Bft) O-SO 247 0 min 0 W/m 17,2 C 22,5 C 0,0 km/h (0 Bft)
20/08/2012 00:40 22,3 C 73 % 1020,2 hPa 0,0 mm 0,0 km/h (0 Bft) O-SO 247 0 min 0 W/m 17,2 C 22,3 C 0,0 km/h (0 Bft)
20/08/2012 00:50 22,2 C 73 % 1020,2 hPa 0,0 mm 0,0 km/h (0 Bft) O-SO 247 0 min 0 W/m 17,1 C 22,2 C 0,0 km/h (0 Bft)
20/08/2012 01:00 22,1 C 74 % 1020,0 hPa 0,0 mm 0,0 km/h (0 Bft) O-SO 247 0 min 0 W/m 17,2 C 22,1 C 0,0 km/h (0 Bft)
20/08/2012 01:10 22,0 C 74 % 1020,1 hPa 0,0 mm 0,0 km/h (0 Bft) N-NO 337 0 min 0 W/m 17,1 C 22,0 C 0,0 km/h (0 Bft)
20/08/2012 01:20 22,0 C 75 % 1020,1 hPa 0,0 mm 0,0 km/h (0 Bft) E-NE 67 0 min 0 W/m 17,4 C 22,0 C 0,0 km/h (0 Bft)
20/08/2012 01:30 21,9 C 76 % 1020,2 hPa 0,0 mm 0,0 km/h (0 Bft) E 90 0 min 0 W/m 17,5 C 21,9 C 2,9 km/h (1 Bft)
20/08/2012 01:40 21,8 C 76 % 1020,2 hPa 0,0 mm 0,0 km/h (0 Bft) O-SO 247 0 min 0 W/m 17,4 C 21,8 C 0,0 km/h (0 Bft)
20/08/2012 01:50 21,4 C 76 % 1020,1 hPa 0,0 mm 0,0 km/h (0 Bft) O-SO 247 0 min 0 W/m 17,0 C 21,4 C 0,0 km/h (0 Bft)
20/08/2012 02:00 21,2 C 77 % 1019,9 hPa 0,0 mm 0,0 km/h (0 Bft) N 360 0 min 0 W/m 17,0 C 21,2 C 0,0 km/h (0 Bft)
20/08/2012 02:10 20,9 C 78 % 1020,2 hPa 0,0 mm 0,0 km/h (0 Bft) NO 315 0 min 0 W/m 16,9 C 20,9 C 0,0 km/h (0 Bft)
20/08/2012 02:20 20,6 C 78 % 1020,0 hPa 0,0 mm 0,0 km/h (0 Bft) NO 315 0 min 0 W/m 16,6 C 20,6 C 0,0 km/h (0 Bft)
20/08/2012 02:30 20,4 C 79 % 1019,7 hPa 0,0 mm 0,0 km/h (0 Bft) NO 315 0 min 0 W/m 16,6 C 20,4 C 0,0 km/h (0 Bft)
20/08/2012 02:40 20,4 C 80 % 1019,9 hPa 0,0 mm 0,0 km/h (0 Bft) NO 315 0 min 0 W/m 16,8 C 20,4 C 0,0 km/h (0 Bft)
20/08/2012 02:50 20,3 C 80 % 1019,6 hPa 0,0 mm 0,0 km/h (0 Bft) NO 315 0 min 0 W/m 16,7 C 20,3 C 0,0 km/h (0 Bft)
20/08/2012 03:02 20,2 C 80 % 1019,6 hPa 0,0 mm 0,0 km/h (0 Bft) NO 315 0 min 0 W/m 16,6 C 20,2 C 0,0 km/h (0 Bft)
20/08/2012 03:10 20,3 C 81 % 1019,6 hPa 0,0 mm 0,0 km/h (0 Bft) NE 45 0 min 0 W/m 16,9 C 20,3 C 0,0 km/h (0 Bft)
20/08/2012 03:20 20,3 C 81 % 1019,5 hPa 0,0 mm 0,0 km/h (0 Bft) NE 45 0 min 0 W/m 16,9 C 20,3 C 0,0 km/h (0 Bft)
20/08/2012 03:30 20,2 C 81 % 1019,5 hPa 0,0 mm 0,0 km/h (0 Bft) NE 45 0 min 0 W/m 16,8 C 20,2 C 0,0 km/h (0 Bft)
20/08/2012 03:40 20,1 C 81 % 1019,6 hPa 0,0 mm 0,0 km/h (0 Bft) NE 45 0 min 0 W/m 16,7 C 20,1 C 0,0 km/h (0 Bft)
20/08/2012 03:50 20,0 C 82 % 1019,7 hPa 0,0 mm 0,0 km/h (0 Bft) NE 45 0 min 0 W/m 16,8 C 20,0 C 0,0 km/h (0 Bft)
20/08/2012 04:00 19,9 C 82 % 1019,6 hPa 0,0 mm 0,0 km/h (0 Bft) NE 45 0 min 0 W/m 16,7 C 19,9 C 0,0 km/h (0 Bft)
20/08/2012 04:10 19,7 C 82 % 1019,4 hPa 0,0 mm 0,0 km/h (0 Bft) NE 45 0 min 0 W/m 16,5 C 19,7 C 0,0 km/h (0 Bft)
20/08/2012 04:20 19,5 C 82 % 1019,3 hPa 0,0 mm 0,0 km/h (0 Bft) NE 45 0 min 0 W/m 16,3 C 19,5 C 0,0 km/h (0 Bft)
20/08/2012 04:30 19,3 C 82 % 1019,4 hPa 0,0 mm 0,0 km/h (0 Bft) NE 45 0 min 0 W/m 16,1 C 19,3 C 0,0 km/h (0 Bft)
20/08/2012 04:40 18,9 C 83 % 1019,4 hPa 0,0 mm 0,0 km/h (0 Bft) NE 45 0 min 0 W/m 15,9 C 18,9 C 0,0 km/h (0 Bft)
20/08/2012 04:50 18,6 C 83 % 1019,6 hPa 0,0 mm 0,0 km/h (0 Bft) NE 45 0 min 0 W/m 15,7 C 18,6 C 0,0 km/h (0 Bft)
20/08/2012 05:00 18,5 C 84 % 1019,4 hPa 0,0 mm 0,0 km/h (0 Bft) E-SE 112 0 min 0 W/m 15,7 C 18,5 C 0,0 km/h (0 Bft)
20/08/2012 05:10 18,6 C 85 % 1019,1 hPa 0,0 mm 1,4 km/h (1 Bft) E 90 0 min 0 W/m 16,0 C 18,6 C 4,3 km/h (1 Bft)
20/08/2012 05:20 18,8 C 86 % 1019,3 hPa 0,0 mm 2,2 km/h (1 Bft) E-NE 67 0 min 0 W/m 16,4 C 18,8 C 4,3 km/h (1 Bft)
20/08/2012 05:30 18,9 C 87 % 1019,5 hPa 0,0 mm 0,0 km/h (0 Bft) E-SE 112 0 min 0 W/m 16,7 C 18,9 C 0,0 km/h (0 Bft)
20/08/2012 05:40 18,8 C 87 % 1019,5 hPa 0,0 mm 0,0 km/h (0 Bft) E-SE 112 0 min 0 W/m 16,6 C 18,8 C 0,0 km/h (0 Bft)
20/08/2012 05:50 18,6 C 86 % 1019,6 hPa 0,0 mm 0,0 km/h (0 Bft) O 270 0 min 0 W/m 16,2 C 18,6 C 0,0 km/h (0 Bft)
20/08/2012 06:00 18,5 C 86 % 1019,5 hPa 0,0 mm 0,0 km/h (0 Bft) N-NE 22 0 min 0 W/m 16,1 C 18,5 C 0,0 km/h (0 Bft)
20/08/2012 06:10 18,5 C 87 % 1019,4 hPa 0,0 mm 0,0 km/h (0 Bft) N-NE 22 0 min 0 W/m 16,3 C 18,5 C 0,0 km/h (0 Bft)
20/08/2012 06:20 18,4 C 86 % 1019,6 hPa 0,0 mm 0,0 km/h (0 Bft) N-NE 22 0 min 0 W/m 16,0 C 18,4 C 0,0 km/h (0 Bft)
20/08/2012 06:30 18,1 C 86 % 1019,6 hPa 0,0 mm 0,0 km/h (0 Bft) N-NO 337 0 min 0 W/m 15,7 C 18,1 C 0,0 km/h (0 Bft)
20/08/2012 06:40 17,9 C 87 % 1019,8 hPa 0,0 mm 0,0 km/h (0 Bft) O-SO 247 0 min 0 W/m 15,7 C 17,9 C 0,0 km/h (0 Bft)
20/08/2012 06:50 18,0 C 88 % 1020,1 hPa 0,0 mm 0,0 km/h (0 Bft) SO 225 0 min 0 W/m 16,0 C 18,0 C 0,0 km/h (0 Bft)
20/08/2012 07:00 17,9 C 88 % 1019,7 hPa 0,0 mm 0,0 km/h (0 Bft) S-SO 202 0 min 0 W/m 15,9 C 17,9 C 0,0 km/h (0 Bft)
20/08/2012 07:10 17,9 C 89 % 1019,6 hPa 0,0 mm 0,0 km/h (0 Bft) SE 135 0 min 0 W/m 16,1 C 17,9 C 0,0 km/h (0 Bft)
20/08/2012 07:20 18,1 C 89 % 1019,5 hPa 0,0 mm 0,0 km/h (0 Bft) SE 135 0 min 0 W/m 16,3 C 18,1 C 0,0 km/h (0 Bft)
20/08/2012 07:30 18,1 C 89 % 1019,7 hPa 0,0 mm 0,0 km/h (0 Bft) SE 135 0 min 0 W/m 16,3 C 18,1 C 0,0 km/h (0 Bft)
20/08/2012 07:40 18,1 C 89 % 1020,0 hPa 0,0 mm 0,0 km/h (0 Bft) SE 135 0 min 0 W/m 16,3 C 18,1 C 0,0 km/h (0 Bft)
20/08/2012 07:50 18,1 C 89 % 1019,9 hPa 0,0 mm 0,0 km/h (0 Bft) SE 135 0 min 0 W/m 16,3 C 18,1 C 0,0 km/h (0 Bft)
20/08/2012 08:00 18,3 C 89 % 1020,2 hPa 0,0 mm 0,0 km/h (0 Bft) SE 135 0 min 0 W/m 16,5 C 18,3 C 0,0 km/h (0 Bft)
20/08/2012 08:10 18,5 C 89 % 1020,2 hPa 0,0 mm 0,0 km/h (0 Bft) SE 135 0 min 0 W/m 16,7 C 18,5 C 0,0 km/h (0 Bft)
20/08/2012 08:20 18,8 C 89 % 1020,3 hPa 0,0 mm 0,0 km/h (0 Bft) SE 135 0 min 0 W/m 16,9 C 18,8 C 0,0 km/h (0 Bft)
20/08/2012 08:30 19,3 C 89 % 1020,3 hPa 0,0 mm 0,0 km/h (0 Bft) SE 135 0 min 0 W/m 17,4 C 19,3 C 0,0 km/h (0 Bft)
20/08/2012 08:40 19,8 C 88 % 1020,4 hPa 0,0 mm 0,0 km/h (0 Bft) SE 135 0 min 0 W/m 17,8 C 19,8 C 0,0 km/h (0 Bft)
20/08/2012 08:50 20,1 C 87 % 1020,4 hPa 0,0 mm 0,0 km/h (0 Bft) SE 135 0 min 0 W/m 17,9 C 20,1 C 0,0 km/h (0 Bft)
20/08/2012 09:00 20,5 C 86 % 1020,5 hPa 0,0 mm 0,0 km/h (0 Bft) E-SE 112 0 min 0 W/m 18,1 C 20,5 C 0,0 km/h (0 Bft)
20/08/2012 09:10 20,9 C 84 % 1020,7 hPa 0,0 mm 0,0 km/h (0 Bft) N-NE 22 0 min 0 W/m 18,1 C 20,9 C 0,0 km/h (0 Bft)
20/08/2012 09:20 21,6 C 81 % 1020,8 hPa 0,0 mm 0,0 km/h (0 Bft) N-NO 337 0 min 0 W/m 18,2 C 21,6 C 0,0 km/h (0 Bft)
20/08/2012 09:30 22,3 C 78 % 1020,8 hPa 0,0 mm 0,0 km/h (0 Bft) N-NO 337 0 min 0 W/m 18,3 C 22,3 C 4,3 km/h (1 Bft)
20/08/2012 09:40 23,0 C 76 % 1020,8 hPa 0,0 mm 1,1 km/h (1 Bft) O-NO 292 0 min 0 W/m 18,5 C 23,0 C 4,3 km/h (1 Bft)
20/08/2012 09:50 23,8 C 74 % 1020,8 hPa 0,0 mm 1,8 km/h (1 Bft) N 360 0 min 0 W/m 18,9 C 23,8 C 3,2 km/h (1 Bft)
20/08/2012 10:00 24,3 C 71 % 1020,7 hPa 0,0 mm 4,0 km/h (1 Bft) NE 45 0 min 0 W/m 18,7 C 24,3 C 4,0 km/h (1 Bft)
20/08/2012 10:10 24,6 C 70 % 1020,8 hPa 0,0 mm 2,5 km/h (1 Bft) N-NE 22 0 min 0 W/m 18,8 C 24,6 C 4,0 km/h (1 Bft)
20/08/2012 10:20 25,2 C 69 % 1020,8 hPa 0,0 mm 1,4 km/h (1 Bft) N-NE 22 0 min 0 W/m 19,1 C 25,2 C 4,0 km/h (1 Bft)
20/08/2012 10:30 25,7 C 68 % 1021,0 hPa 0,0 mm 0,0 km/h (0 Bft) N-NE 22 0 min 0 W/m 19,3 C 25,7 C 0,0 km/h (0 Bft)
20/08/2012 10:40 26,4 C 66 % 1021,0 hPa 0,0 mm 1,1 km/h (1 Bft) N-NE 22 0 min 0 W/m 19,5 C 26,4 C 3,6 km/h (1 Bft)
20/08/2012 10:50 26,9 C 64 % 1020,8 hPa 0,0 mm 1,1 km/h (1 Bft) E-NE 67 0 min 0 W/m 19,5 C 26,9 C 1,1 km/h (1 Bft)
20/08/2012 11:00 27,5 C 62 % 1021,0 hPa 0,0 mm 0,7 km/h (0 Bft) N 360 0 min 0 W/m 19,6 C 27,5 C 3,2 km/h (1 Bft)
20/08/2012 11:10 28,1 C 62 % 1021,2 hPa 0,0 mm 0,0 km/h (0 Bft) NO 315 0 min 0 W/m 20,1 C 28,1 C 0,0 km/h (0 Bft)
20/08/2012 11:20 28,4 C 61 % 1020,9 hPa 0,0 mm 4,7 km/h (1 Bft) NO 315 0 min 0 W/m 20,1 C 28,4 C 7,9 km/h (2 Bft)
20/08/2012 11:30 28,5 C 61 % 1020,7 hPa 0,0 mm 1,8 km/h (1 Bft) N-NE 22 0 min 0 W/m 20,2 C 28,5 C 1,8 km/h (1 Bft)
20/08/2012 11:40 28,3 C 60 % 1020,8 hPa 0,0 mm 0,0 km/h (0 Bft) N-NE 22 0 min 0 W/m 19,8 C 28,3 C 0,0 km/h (0 Bft)
20/08/2012 11:50 28,2 C 60 % 1021,0 hPa 0,0 mm 5,4 km/h (2 Bft) NO 315 0 min 0 W/m 19,7 C 28,2 C 7,6 km/h (2 Bft)
20/08/2012 12:00 28,5 C 61 % 1021,0 hPa 0,0 mm 3,2 km/h (1 Bft) NE 45 0 min 0 W/m 20,2 C 28,5 C 4,3 km/h (1 Bft)
20/08/2012 12:10 28,8 C 60 % 1020,8 hPa 0,0 mm 0,0 km/h (0 Bft) N 360 0 min 0 W/m 20,2 C 28,8 C 0,0 km/h (0 Bft)
20/08/2012 12:20 29,4 C 59 % 1020,7 hPa 0,0 mm 0,4 km/h (0 Bft) NO 315 0 min 0 W/m 20,5 C 29,4 C 0,4 km/h (0 Bft)
20/08/2012 12:30 29,9 C 57 % 1020,8 hPa 0,0 mm 1,8 km/h (1 Bft) N 360 0 min 0 W/m 20,4 C 29,9 C 6,5 km/h (2 Bft)
20/08/2012 12:40 30,1 C 57 % 1020,8 hPa 0,0 mm 0,0 km/h (0 Bft) NO 315 0 min 0 W/m 20,6 C 30,1 C 3,2 km/h (1 Bft)
20/08/2012 12:50 30,3 C 57 % 1020,8 hPa 0,0 mm 1,4 km/h (1 Bft) N-NO 337 0 min 0 W/m 20,8 C 30,3 C 6,8 km/h (2 Bft)
20/08/2012 13:00 30,7 C 56 % 1020,7 hPa 0,0 mm 1,8 km/h (1 Bft) N-NO 337 0 min 0 W/m 20,9 C 30,7 C 2,9 km/h (1 Bft)
20/08/2012 13:10 31,1 C 55 % 1020,8 hPa 0,0 mm 0,0 km/h (0 Bft) O 270 0 min 0 W/m 21,0 C 31,1 C 0,0 km/h (0 Bft)
20/08/2012 13:20 31,2 C 54 % 1020,7 hPa 0,0 mm 1,1 km/h (1 Bft) O-SO 247 0 min 0 W/m 20,8 C 31,2 C 4,3 km/h (1 Bft)
20/08/2012 13:30 31,4 C 54 % 1020,6 hPa 0,0 mm 0,0 km/h (0 Bft) N-NE 22 0 min 0 W/m 20,9 C 31,4 C 0,0 km/h (0 Bft)
20/08/2012 13:40 31,9 C 53 % 1020,5 hPa 0,0 mm 2,5 km/h (1 Bft) N-NE 22 0 min 0 W/m 21,1 C 31,9 C 6,5 km/h (2 Bft)
20/08/2012 13:50 32,3 C 52 % 1020,4 hPa 0,0 mm 0,0 km/h (0 Bft) NO 315 0 min 0 W/m 21,2 C 32,3 C 0,0 km/h (0 Bft)
20/08/2012 14:00 32,5 C 52 % 1020,1 hPa 0,0 mm 2,9 km/h (1 Bft) E-SE 112 0 min 0 W/m 21,3 C 32,5 C 2,9 km/h (1 Bft)
20/08/2012 14:10 32,5 C 51 % 1020,2 hPa 0,0 mm 3,6 km/h (1 Bft) E-NE 67 0 min 0 W/m 21,0 C 32,5 C 3,6 km/h (1 Bft)
20/08/2012 14:20 32,9 C 51 % 1020,0 hPa 0,0 mm 2,9 km/h (1 Bft) NE 45 0 min 0 W/m 21,4 C 32,9 C 3,2 km/h (1 Bft)
20/08/2012 14:30 33,2 C 51 % 1019,9 hPa 0,0 mm 3,2 km/h (1 Bft) NO 315 0 min 0 W/m 21,7 C 33,2 C 8,6 km/h (2 Bft)
20/08/2012 14:40 33,4 C 49 % 1019,9 hPa 0,0 mm 0,4 km/h (0 Bft) O 270 0 min 0 W/m 21,2 C 33,4 C 2,9 km/h (1 Bft)
20/08/2012 14:50 33,1 C 49 % 1019,7 hPa 0,0 mm 1,4 km/h (1 Bft) O-SO 247 0 min 0 W/m 20,9 C 33,1 C 2,9 km/h (1 Bft)
20/08/2012 15:00 33,0 C 48 % 1019,8 hPa 0,0 mm 1,8 km/h (1 Bft) S 180 0 min 0 W/m 20,5 C 33,0 C 4,7 km/h (1 Bft)
20/08/2012 15:10 33,1 C 49 % 1019,7 hPa 0,0 mm 0,0 km/h (0 Bft) E-NE 67 0 min 0 W/m 20,9 C 33,1 C 0,0 km/h (0 Bft)
20/08/2012 15:20 33,6 C 49 % 1019,5 hPa 0,0 mm 0,0 km/h (0 Bft) O 270 0 min 0 W/m 21,4 C 33,6 C 0,0 km/h (0 Bft)
20/08/2012 15:30 33,8 C 46 % 1019,6 hPa 0,0 mm 2,9 km/h (1 Bft) S-SO 202 0 min 0 W/m 20,5 C 33,8 C 6,1 km/h (2 Bft)
20/08/2012 15:40 33,8 C 47 % 1019,5 hPa 0,0 mm 0,0 km/h (0 Bft) SE 135 0 min 0 W/m 20,9 C 33,8 C 3,6 km/h (1 Bft)
20/08/2012 15:50 33,9 C 46 % 1019,4 hPa 0,0 mm 2,9 km/h (1 Bft) S-SO 202 0 min 0 W/m 20,6 C 33,9 C 7,6 km/h (2 Bft)
20/08/2012 16:00 34,1 C 46 % 1019,4 hPa 0,0 mm 6,1 km/h (2 Bft) S 180 0 min 0 W/m 20,8 C 34,1 C 7,6 km/h (2 Bft)
20/08/2012 16:10 34,1 C 46 % 1019,4 hPa 0,0 mm 4,3 km/h (1 Bft) E-NE 67 0 min 0 W/m 20,8 C 34,1 C 9,7 km/h (2 Bft)
20/08/2012 16:20 33,9 C 47 % 1019,3 hPa 0,0 mm 4,3 km/h (1 Bft) S 180 0 min 0 W/m 21,0 C 33,9 C 4,3 km/h (1 Bft)
20/08/2012 16:30 34,2 C 46 % 1019,2 hPa 0,0 mm 2,9 km/h (1 Bft) O 270 0 min 0 W/m 20,9 C 34,2 C 11,2 km/h (2 Bft)
20/08/2012 16:40 34,3 C 46 % 1019,2 hPa 0,0 mm 2,2 km/h (1 Bft) O-SO 247 0 min 0 W/m 21,0 C 34,3 C 6,8 km/h (2 Bft)
20/08/2012 16:50 34,3 C 44 % 1019,2 hPa 0,0 mm 4,7 km/h (1 Bft) SO 225 0 min 0 W/m 20,3 C 34,3 C 6,5 km/h (2 Bft)
20/08/2012 17:00 34,2 C 44 % 1019,1 hPa 0,0 mm 3,2 km/h (1 Bft) SO 225 0 min 0 W/m 20,2 C 34,2 C 6,5 km/h (2 Bft)
20/08/2012 17:10 34,3 C 44 % 1019,1 hPa 0,0 mm 6,1 km/h (2 Bft) S-SO 202 0 min 0 W/m 20,3 C 34,3 C 10,1 km/h (2 Bft)
20/08/2012 17:20 34,1 C 45 % 1019,0 hPa 0,0 mm 2,9 km/h (1 Bft) SO 225 0 min 0 W/m 20,4 C 34,1 C 7,2 km/h (2 Bft)
20/08/2012 17:30 34,1 C 46 % 1018,9 hPa 0,0 mm 0,0 km/h (0 Bft) SO 225 0 min 0 W/m 20,8 C 34,1 C 0,0 km/h (0 Bft)
20/08/2012 17:40 34,3 C 46 % 1018,9 hPa 0,0 mm 0,0 km/h (0 Bft) O 270 0 min 0 W/m 21,0 C 34,3 C 3,6 km/h (1 Bft)
20/08/2012 17:50 34,3 C 46 % 1018,9 hPa 0,0 mm 1,1 km/h (1 Bft) O 270 0 min 0 W/m 21,0 C 34,3 C 3,2 km/h (1 Bft)
20/08/2012 18:00 34,3 C 46 % 1018,8 hPa 0,0 mm 2,2 km/h (1 Bft) N 360 0 min 0 W/m 21,0 C 34,3 C 3,6 km/h (1 Bft)
20/08/2012 18:10 34,4 C 44 % 1018,7 hPa 0,0 mm 0,0 km/h (0 Bft) SO 225 0 min 0 W/m 20,3 C 34,4 C 3,2 km/h (1 Bft)
20/08/2012 18:20 34,2 C 46 % 1018,6 hPa 0,0 mm 2,2 km/h (1 Bft) O 270 0 min 0 W/m 20,9 C 34,2 C 4,3 km/h (1 Bft)
20/08/2012 18:30 34,1 C 46 % 1018,6 hPa 0,0 mm 0,0 km/h (0 Bft) O-SO 247 0 min 0 W/m 20,8 C 34,1 C 0,0 km/h (0 Bft)
20/08/2012 18:40 34,0 C 47 % 1018,5 hPa 0,0 mm 2,9 km/h (1 Bft) NO 315 0 min 0 W/m 21,1 C 34,0 C 6,8 km/h (2 Bft)
20/08/2012 18:50 34,0 C 47 % 1018,3 hPa 0,0 mm 3,6 km/h (1 Bft) N-NO 337 0 min 0 W/m 21,1 C 34,0 C 6,8 km/h (2 Bft)
20/08/2012 19:00 33,9 C 46 % 1018,4 hPa 0,0 mm 1,4 km/h (1 Bft) N-NO 337 0 min 0 W/m 20,6 C 33,9 C 3,2 km/h (1 Bft)
20/08/2012 19:10 33,7 C 47 % 1018,5 hPa 0,0 mm 2,5 km/h (1 Bft) O-NO 292 0 min 0 W/m 20,8 C 33,7 C 4,3 km/h (1 Bft)
20/08/2012 19:20 33,3 C 47 % 1018,4 hPa 0,0 mm 5,0 km/h (1 Bft) NO 315 0 min 0 W/m 20,4 C 33,3 C 9,0 km/h (2 Bft)
20/08/2012 19:30 32,8 C 48 % 1018,4 hPa 0,0 mm 3,6 km/h (1 Bft) N-NO 337 0 min 0 W/m 20,3 C 32,8 C 7,2 km/h (2 Bft)
20/08/2012 19:40 32,3 C 49 % 1018,4 hPa 0,0 mm 1,8 km/h (1 Bft) N-NO 337 0 min 0 W/m 20,2 C 32,3 C 4,7 km/h (1 Bft)
20/08/2012 19:50 31,9 C 50 % 1018,3 hPa 0,0 mm 3,6 km/h (1 Bft) N-NO 337 0 min 0 W/m 20,2 C 31,9 C 4,3 km/h (1 Bft)
20/08/2012 20:00 31,4 C 51 % 1018,3 hPa 0,0 mm 4,3 km/h (1 Bft) NO 315 0 min 0 W/m 20,0 C 31,4 C 8,3 km/h (2 Bft)
20/08/2012 20:10 31,1 C 51 % 1018,4 hPa 0,0 mm 0,0 km/h (0 Bft) NO 315 0 min 0 W/m 19,7 C 31,1 C 2,9 km/h (1 Bft)
20/08/2012 20:20 30,6 C 52 % 1018,4 hPa 0,0 mm 1,1 km/h (1 Bft) N-NO 337 0 min 0 W/m 19,6 C 30,6 C 3,6 km/h (1 Bft)
20/08/2012 20:30 30,2 C 53 % 1018,4 hPa 0,0 mm 0,0 km/h (0 Bft) N-NO 337 0 min 0 W/m 19,5 C 30,2 C 0,0 km/h (0 Bft)
20/08/2012 20:40 29,8 C 54 % 1018,6 hPa 0,0 mm 0,0 km/h (0 Bft) N-NO 337 0 min 0 W/m 19,5 C 29,8 C 0,0 km/h (0 Bft)
20/08/2012 20:50 29,3 C 56 % 1018,6 hPa 0,0 mm 0,0 km/h (0 Bft) N-NO 337 0 min 0 W/m 19,6 C 29,3 C 0,0 km/h (0 Bft)
20/08/2012 21:00 28,7 C 57 % 1018,7 hPa 0,0 mm 0,0 km/h (0 Bft) N-NO 337 0 min 0 W/m 19,3 C 28,7 C 0,0 km/h (0 Bft)
20/08/2012 21:10 28,2 C 57 % 1018,7 hPa 0,0 mm 0,0 km/h (0 Bft) N-NO 337 0 min 0 W/m 18,9 C 28,2 C 0,0 km/h (0 Bft)
20/08/2012 21:20 27,7 C 58 % 1018,9 hPa 0,0 mm 0,0 km/h (0 Bft) N-NO 337 0 min 0 W/m 18,7 C 27,7 C 0,0 km/h (0 Bft)
20/08/2012 21:30 27,3 C 59 % 1018,8 hPa 0,0 mm 0,0 km/h (0 Bft) N-NO 337 0 min 0 W/m 18,6 C 27,3 C 0,0 km/h (0 Bft)
20/08/2012 21:40 26,9 C 60 % 1019,1 hPa 0,0 mm 0,0 km/h (0 Bft) N-NO 337 0 min 0 W/m 18,5 C 26,9 C 0,0 km/h (0 Bft)
20/08/2012 21:50 26,5 C 61 % 1019,2 hPa 0,0 mm 0,0 km/h (0 Bft) N-NO 337 0 min 0 W/m 18,4 C 26,5 C 0,0 km/h (0 Bft)
20/08/2012 22:00 26,2 C 63 % 1019,3 hPa 0,0 mm 0,0 km/h (0 Bft) N-NO 337 0 min 0 W/m 18,6 C 26,2 C 0,0 km/h (0 Bft)
20/08/2012 22:10 25,8 C 64 % 1019,4 hPa 0,0 mm 0,0 km/h (0 Bft) N-NO 337 0 min 0 W/m 18,5 C 25,8 C 0,0 km/h (0 Bft)
20/08/2012 22:20 25,6 C 64 % 1019,5 hPa 0,0 mm 0,0 km/h (0 Bft) N-NO 337 0 min 0 W/m 18,3 C 25,6 C 0,0 km/h (0 Bft)
20/08/2012 22:30 25,4 C 66 % 1019,6 hPa 0,0 mm 0,0 km/h (0 Bft) N-NO 337 0 min 0 W/m 18,6 C 25,4 C 0,0 km/h (0 Bft)
20/08/2012 22:40 25,2 C 66 % 1019,6 hPa 0,0 mm 0,0 km/h (0 Bft) N 360 0 min 0 W/m 18,4 C 25,2 C 0,0 km/h (0 Bft)
20/08/2012 22:50 25,1 C 66 % 1019,6 hPa 0,0 mm 0,0 km/h (0 Bft) N 360 0 min 0 W/m 18,3 C 25,1 C 0,0 km/h (0 Bft)
20/08/2012 23:00 24,9 C 66 % 1019,7 hPa 0,0 mm 0,0 km/h (0 Bft) N-NO 337 0 min 0 W/m 18,1 C 24,9 C 0,0 km/h (0 Bft)
20/08/2012 23:10 24,8 C 67 % 1019,7 hPa 0,0 mm 0,0 km/h (0 Bft) N-NO 337 0 min 0 W/m 18,2 C 24,8 C 0,0 km/h (0 Bft)
20/08/2012 23:20 24,6 C 67 % 1019,6 hPa 0,0 mm 0,0 km/h (0 Bft) N-NO 337 0 min 0 W/m 18,1 C 24,6 C 0,0 km/h (0 Bft)
_ Min-Heure 07:10 18:10 20:00 - 23:20 - - - - 04:50 07:10 23:20
Minimum _ 17,9 C 44 % 1018,3 hPa - 0,0 km/h (0 Bft) - - - - 15,7 C 17,9 C 0,0 km/h (0 Bft)
_ Max-Heure 18:10 08:30 11:10 23:20 17:10 - - 23:20 23:20 14:30 18:10 16:30
Maximum _ 34,4 C 89 % 1021,2 hPa 0,0 mm 6,1 km/h
S-SO (2 Bft)
- - 0 min 0 W/m 21,7 C 34,4 C 11,2 km/h
O (2 Bft)
Moyenne _ 26,1 C 66 % 1019,7 hPa #0,0 mm 1,0 km/h (0 Bft) N-NO - #0 min. 0 W/m 18,7 C 26,1 C 2,1 km/h (1 Bft)
Saint Bonnet de Bellac- Haute Vienne - France